Regional Weather Roundup
Issued by NWS Wilmington, NC

Home | Current Version | Previous Version | Text Only | Print | Product List | Glossary On
Versions: 1 2 3 4 5 6 7 8 9 10 11 12 13 14 15 16 17 18 19 20 21 22 23 24 25 26 27
000
ASUS42 KILM 241810
RWRILM
RWRILM
REGIONAL HOURLY WEATHER ROUNDUP
NATIONAL WEATHER SERVICE WILMINGTON NC
200 PM EDT FRI OCT 24 2014

NOTE: "FAIR" INDICATES FEW OR NO CLOUDS BELOW 12,000 FEET WITH NO
SIGNIFICANT WEATHER AND/OR OBSTRUCTIONS TO VISIBILITY.

...............WFO WILMINGTON COUNTY WARNING AREA...............

......COASTAL NC AND SC COUNTIES......

CITY           SKY/WX    TMP DP  RH WIND       PRES   REMARKS
WILMINGTON     MOSUNNY   69  47  45 NW3       29.99F
SOUTHPORT      MOSUNNY   68  50  53 SE6       30.00F
N MYRTLE BEACH SUNNY     66  47  50 CALM      30.00F
MYRTLE BEACH   MOSUNNY   68  46  45 N8        30.02F

......INLAND NC AND SC COUNTIES.......

CITY           SKY/WX    TMP DP  RH WIND       PRES   REMARKS
LUMBERTON        N/A     70  44  39 MISG      30.00F
ELIZABETHTOWN  MOSUNNY   67  45  44 W3        30.01F
WHITEVILLE     MOSUNNY   67  45  45 CALM      30.00F
FLORENCE       MOSUNNY   69  45  41 W6        30.01F
DARLINGTON     MOSUNNY   70  45  40 N6        30.02F

....................REST OF NORTH CAROLINA......................

.........EASTERN NC.........

CITY           SKY/WX    TMP DP  RH WIND       PRES   REMARKS
CAPE HATTERAS  PTSUNNY   63  49  60 NW8       29.96F
JACKSONVILLE   MOSUNNY   70  45  40 CALM      29.99F
MOREHEAD CITY  PTSUNNY   66  47  50 W5        29.98F
KENANSVILLE    MOSUNNY   69  44  39 W3        30.00F
NEW BERN       SUNNY     72  45  37 W6        29.99F
ELIZABETH CITY MOSUNNY   70  49  47 NW8       29.94F

.........CENTRAL NC.........

CITY           SKY/WX    TMP DP  RH WIND       PRES   REMARKS
RALEIGH DURHAM PTSUNNY   68  43  40 CALM      29.99F
ROCKY MOUNT    MOSUNNY   70  46  42 VRB3      29.98F
ROANOKE RAPIDS NOT AVBL
FAYETTEVILLE   MOSUNNY   69  44  40 CALM      30.00F
HOFFMAN        MOSUNNY   69  43  39 W6        30.02F

.........WESTERN NC.........

CITY           SKY/WX    TMP DP  RH WIND       PRES   REMARKS
CHARLOTTE      CLOUDY    67  40  37 NW5       30.02F
GREENSBORO     PTSUNNY   65  39  38 N6        30.01F
HICKORY        NOT AVBL
BOONE          NOT AVBL
ASHEVILLE      NOT AVBL

.....................REST OF SOUTH CAROLINA.....................

.........EASTERN SC.........

CITY           SKY/WX    TMP DP  RH WIND       PRES   REMARKS
CHARLESTON     MOSUNNY   74  47  38 CALM      30.01F
BEAUFORT MCAS  MOSUNNY   72  45  37 CALM      30.02F
HILTON HEAD    NOT AVBL

.........CENTRAL SC.........

CITY           SKY/WX    TMP DP  RH WIND       PRES   REMARKS
COLUMBIA       MOSUNNY   69  43  38 VRB3      30.02F
ORANGEBURG     SUNNY     70  46  42 W5        30.02F
SUMTER SHAW    SUNNY     69  46  43 VRB2      29.99F

.........WESTERN SC.........

CITY           SKY/WX    TMP DP  RH WIND       PRES   REMARKS
GREENVILLE     NOT AVBL
ROCK HILL      MOSUNNY   66  39  37 N5        30.03F
ANDERSON       PTSUNNY   68  43  40 VRB3      30.04F
CLEMSON        NOT AVBL
GREENWOOD      MOSUNNY   67  43  41 SE3       30.06F


...................COASTAL AND OFFSHORE REPORTS..................

................LOCAL PIERS AND NC RESERVE................


STATION/POSITION TIME  SKY/WX   TEMP    WIND        PRES    VSBY
                                AIR SEA DIR/SP/G
                 (UTC)          (F)     (DEG/KT/KT) (MB)    (MI)
JOHNY MRCER PIER 1800            64 72  100/  4/  5 1015.3F
NC RESRV MASNBRO 1700            66      80/  2     1017.0S
OCEAN CREST PIER 1800            65 69  140/  7/  8 1015.2F
SPRINGMAID  PIER 1800            65 69  100/  4/  6 1016.2F


................COASTAL AND OFFSHORE BUOYS................


STATION/POSITION TIME  SKY/WX   TEMP    WIND        PRES    VSBY
                                AIR SEA DIR/SP/G
                 (UTC)          (F)     (DEG/KT/KT) (MB)    (MI)
DIMNDSHOAL 41025 1800            62     310/ 14/ 17 1014.7F
WVE H/P(F/S)=  4/10 WND WVE H/P(F/S)=  3/ 4 SWL H/P/D(F/S/D)=  2/ 40/10

CAPE LOOKOUT     1700            64     330/  6/  8 1016.1F
ONSLOW BAY 41036 1800            65 75  360/  8/ 10 1015.4F
WVE H/P(F/S)=  3/11 WND WVE H/P(F/S)=  2/ 3 SWL H/P/D(F/S/D)=  3/100/11

5 WRITEBCH 41038 1800            61 72   70/  4/  4   N/A
MASONBORO  41110 1800               72                N/A
WVE H/P(F/S)=  2/10 WND WVE H/P(F/S)=  2/10 SWL H/P/D(F/S/D)=  2/100/11

WILM HARBR 41108 1800               71                N/A
WVE H/P(F/S)=  2/11 WND WVE H/P(F/S)=  2/10

27WRITEBCH 41037 1700            63 74   40/  6/  8 1016.4F
FRYING PAN 41013 1800            65 73   20/  4/  6 1016.7F
WVE H/P(F/S)=  3/10 WND WVE H/P(F/S)=  2/ 4 SWL H/P/D(F/S/D)=  2/ 90/10

SUNST NRSH 41024 1700            67     150/  4/  4 1016.7F
CAPRS NRSH 41029 NOT AVBL
EDISTO     41004 1800            68 78  340/  6/ 10 1016.0F
WVE H/P(F/S)=  3/11 WND WVE H/P(F/S)=  2/ 4 SWL H/P/D(F/S/D)=  3/11



..........OFFSHORE BUOYS BEYOND 100 NM OFFSHORE...........
.....IN A TRIANGLE---HAT TO BERMUDA TO BAHAMAS TO HAT.....


STATION/POSITION TIME  SKY/WX   TEMP    WIND        PRES    VSBY
                                AIR SEA DIR/SP/G
                 (UTC)          (F)     (DEG/KT/KT) (MB)    (MI)
150E HAT   41001 NOT AVBL
W BERMUDA  41048 1738            76 79  270/ 16/ 19 1012.1F
WVE H/P(F/S)=  8/10 WND WVE H/P(F/S)=  5/ 7 SWL H/P/D(F/S/D)=  7/10

ATLANTIC S 41049 1738            82 81  220/ 12/ 14 1013.0F
WVE H/P(F/S)=  3/10 WND WVE H/P(F/S)=  2/ 4

E BAHAMAS  41046 1710            83 84  170/ 12/ 16 1012.0F
WVE H/P(F/S)=  3/ 9 WND WVE H/P(F/S)=  2/ 4 SWL H/P/D(F/S/D)=  2/ 80/ 9

NE BAHAMAS 41047 1713            79 82   80/ 12/ 16 1012.6F
WVE H/P(F/S)=  6/11 WND WVE H/P(F/S)=  2/ 5 SWL H/P/D(F/S/D)=  7/350/11

120E CANVRL41010 1800            74 81   60/ 10/ 12 1014.5F
WVE H/P(F/S)=  3/ 9 WND WVE H/P(F/S)=  2/ 3 SWL H/P/D(F/S/D)=  2/ 50/ 9


END



USA.gov is the U.S. government's official web portal to all federal, state and local government web resources and services.